sat.trackr.live / text

‹ back to catalog

STARLINK-30872

NORAD 58225 · 2023-170V

PAYLOAD ACTIVE UNKNOWN

§ Identity

Operator
Country
US
Launch date
2023-11-03
Launch site
AFETR
Launch vehicle
Mass (kg)
RCS (m²)

Purposes: comms

External: N2YO · Heavens-Above · Gunter

§ Orbital elements

Epoch: 2026-05-24T21:36:01.177632Z

Period
94.27 min
Inclination
43.0026°
Eccentricity
0.0001363
Mean motion
15.27578139 rev/d
Perigee alt
482.1 km
Apogee alt
484.0 km
Semi-major
6,861.2 km
B*
-8.3369e-6
RAAN
341.9153°
Arg perigee
272.4481°
Mean anomaly
87.6215°
Rev number
14,362

§ Raw data

STARLINK-308721 58225U 23170V   26144.90001363 -.00000492  00000+0 -83369-5 0  99942 58225  43.0026 341.9153 0001363 272.4481  87.6215 15.27578139143629

JSON: /api/v1/satellites/58225 · /tle

For live sub-satellite position, see the globe view (requires WebGL).

§ Visibility from observer

Set your observer location to see the next 7 days of passes ≥ 10°. The values pass through the URL so the page stays shareable.

No JS? Fill the form by hand. The geolocation button needs JavaScript.